Regional Weather Roundup
Issued by NWS

Home | Current Version | Previous Version | Graphics & Text | Print | Product List | Glossary Off
Versions: 1 2 3 4 5 6 7 8 9 10 11 12 13 14 15 16 17 18 19 20 21 22 23 24 25 26 27 28 29 30 31 32 33 34 35 36 37 38 39 40 41 42 43 44 45 46 47 48 49 50

000
ASUS43 KMPX 241210
RWRMN
WEATHER ROUNDUP FOR MINNESOTA
NATIONAL WEATHER SERVICE TWIN CITIES/CHANHASSEN MN
700 AM CDT FRI MAR 24 2017


NOTE: "FAIR" INDICATES FEW OR NO CLOUDS BELOW 12,000 FEET WITH NO
SIGNIFICANT WEATHER AND/OR OBSTRUCTIONS TO VISIBILITY. N/A MEANS
CURRENT SKY AND/OR WEATHER CONDITIONS ARE NOT AVAILABLE.

MNZ060>063-068>070-241300-
   Twin Cities Metro

CITY           SKY/WX    TMP DP  RH WIND       PRES   REMARKS
TWIN CITIES    CLOUDY    38  36  92 N9        29.89R FOG
6HR MIN TEMP:  38; 6HR MAX TEMP:  39; 6HR PCP:  0.01;

ST PAUL        CLOUDY    38  38 100 N7        29.90R FOG
CRYSTAL        CLOUDY    37  34  89 N8        29.90R FOG
BLAINE           N/A     37  37 100 N7        29.91R FOG
LAKEVILLE      CLOUDY    37  37 100 N6        29.88R FOG
EDEN PRAIRIE   CLOUDY    39  36  89 N9        29.88R FOG
6HR MIN TEMP:  39; 6HR MAX TEMP:  40; 6HR PCP: TRACE;

SOUTH ST PAUL  CLOUDY    38  38  97 N6        29.89R FOG
LAKE ELMO      CLOUDY    37  36  93 N6        29.90R FOG
$$
MNZ001>005-007-008-013>017-022>024-027-028-241300-
   Northwest Minnesota

CITY           SKY/WX    TMP DP  RH WIND       PRES   REMARKS
BEMIDJI        CLOUDY    32  32  99 N9        29.99R FOG     WCI  24
HALLOCK        CLEAR     28  27  93 N10       30.09R WCI  19
ROSEAU         CLOUDY    28  23  80 N10       30.04R WCI  19
WARROAD        CLOUDY    27  25  93 NW9       30.03R WCI  17
THIEF RVR FALL CLOUDY    30  27  88 N12       30.04R WCI  20
CROOKSTON      CLOUDY    30  30 100 N6        30.05R FOG     WCI  24
FOSSTON        CLOUDY    30  30 100 N5        30.01R FOG     WCI  25
DETROIT LAKES  CLOUDY    34  34 100 N3        30.00R FOG
MOORHEAD       CLOUDY    34  32  93 N9        30.03R FOG     WCI  26
PARK RAPIDS    FOG       34  31  88 N6        29.97R VSB 3/4 WCI  29
MAHNOMEN       CLOUDY    32  32  99 N7        30.01R FOG     WCI  26
$$
MNZ006-009>011-018-025>026-241300-
   North Central Minnesota

CITY           SKY/WX    TMP DP  RH WIND       PRES   REMARKS
BAUDETTE       CLOUDY    29  25  85 NW13      30.00R WCI  19
FLAG ISLAND    CLEAR     28  25  86 N12       30.02R WCI  18
INTL FALLS     CLOUDY    33  31  92 NW5       29.97R WCI  29
6HR MIN TEMP:  31; 6HR MAX TEMP:  34;

WASKISH        CLOUDY    34  32  93 NW5       30.00R WCI  30
BIG FORK       CLOUDY    34  32  93 CALM      29.96R FOG
LONGVILLE      CLOUDY    32  32 100 NW3       29.97R FOG
GRAND RAPIDS   CLOUDY    33  32  96 NW5       29.98R FOG     WCI  29
CRANE LAKE     CLOUDY    32  30  93 CALM      29.97R FOG
ORR            CLOUDY    32  30  93 CALM      29.94R
COOK           CLOUDY    32  32 100 CALM      29.95R FOG
WALKER         CLOUDY    32  32 100 N3        29.98R FOG
$$
MNZ012-019>021-037-241300-
   Northeast Minnesota

CITY           SKY/WX    TMP DP  RH WIND       PRES   REMARKS
DULUTH         CLOUDY    34  32  92 N6        29.92R FOG     WCI  29
6HR MIN TEMP:  33; 6HR MAX TEMP:  34; 6HR PCP:  0.01;

ELY            CLOUDY    32  32 100 CALM      29.93R FOG
HIBBING        CLOUDY    32  31  96 NW6       29.94R FOG     WCI  26
EVELETH        CLOUDY    33  32  96 NW3       29.95R FOG
DULUTH HARBOR  CLOUDY    34  32  93 CALM      29.96R FOG
TWO HARBORS    CLOUDY    36  30  80 CALM      29.91S HAZE
SILVER BAY     CLOUDY    34  34 100 CALM      29.91R FOG
GRAND MARAIS     N/A     33  32  96 CALM      29.94R
G MARAIS ARPRT CLOUDY    30  27  86 N6        29.89R FOG     WCI  24
$$
MNZ029>031-032-039>041-046>048-054>057-064-241300-
   West Central Minnesota

CITY           SKY/WX    TMP DP  RH WIND       PRES   REMARKS
FERGUS FALLS   CLOUDY    34  34 100 N5        30.03R FOG     WCI  30
WHEATON        CLOUDY    34  32  93 NW8       30.02R FOG     WCI  27
MORRIS         CLOUDY    34  34 100 N10       29.97R FOG     WCI  26
ALEXANDRIA     CLOUDY    34  33  96 N12       29.96R WCI  25
ELBOW LAKE     CLOUDY    32  32 100 N5        29.99R FOG     WCI  28
WADENA         CLOUDY    32  32 100 NW5       29.97R FOG     WCI  27
GLENWOOD       CLOUDY    34  34 100 N8        29.95R FOG     WCI  27
APPLETON       CLOUDY    36  34  93 N10       29.95R FOG
BENSON         CLOUDY    37  32  81 NE9       29.96R HAZE
ORTONVILLE     CLOUDY    34  32  93 N12       29.96R FOG     WCI  25
MADISON        CLOUDY    37  37 100 N9        29.95R FOG
WILLMAR        CLOUDY    36  36 100 N7        29.94R
$$
MNZ033>034-036-042>043-049>051-058-059-241300-
   Central Minnesota

CITY           SKY/WX    TMP DP  RH WIND       PRES   REMARKS
ST CLOUD       CLOUDY    34  34 100 N6        29.93R WCI  29
6HR MIN TEMP:  34; 6HR MAX TEMP:  35; 6HR PCP: TRACE;

SAUK CENTRE    CLOUDY    33  33  98 N7        29.94R FOG     WCI  27
PAYNESVILLE      N/A     34  34 100 N5        29.93R FOG     WCI  30
AITKIN         CLOUDY    36  30  80 CALM      29.94R FOG
PINE RIVER     CLOUDY    32  32 100 NW5       30.00R FOG     WCI  27
BRAINERD       CLOUDY    33  32  96 N6        29.95R FOG     WCI  28
STAPLES        CLOUDY    32  32 100 N3        29.96R FOG
LONG PRAIRIE   CLOUDY    32  32 100 NW8       29.95R FOG     WCI  25
LITTLE FALLS   CLOUDY    32  32 100 N5        29.95R FOG     WCI  27
LITCHFIELD     CLOUDY    36  36 100 NE7       29.92R FOG
BUFFALO        DRIZZLE   35  34  96 N5        29.93R WCI  31
MAPLE LAKE     CLOUDY    36  35  99 N5        29.93R FOG
HUTCHINSON     DRIZZLE   37  37 100 N6        29.91R
$$
MNZ037-044-045-052-053-241300-
   East Central Minnesota

CITY           SKY/WX    TMP DP  RH WIND       PRES   REMARKS
PRINCETON      CLOUDY    36  34  93 N6        29.93R FOG
MORA           CLOUDY    34  32  93 CALM      29.94R FOG
CAMBRIDGE      CLOUDY    36  34  93 N3        29.90R FOG
RUSH CITY      CLOUDY    34  33  96 CALM      29.92R FOG
MOOSE LAKE     CLOUDY    32  32 100 CALM      29.92R FOG
HINCKLEY       CLOUDY    34  34 100 N3        29.93R FOG
CLOQUET        CLOUDY    34  30  86 CALM      29.93R FOG
MCGREGOR       CLOUDY    32  32 100 NW3       29.95R
$$
MNZ071>073-080-081-089-090-097-098-241300-
   Southwest Minnesota

CITY           SKY/WX    TMP DP  RH WIND       PRES   REMARKS
MONTEVIDEO     CLOUDY    36  36 100 NE8       29.95R FOG
GRANITE FALLS  CLOUDY    37  36  96 N8        29.94R FOG
CANBY          FOG       35  35  99 N6        29.95R VSB 1   WCI  30
MARSHALL       LGT RAIN  34  34 100 N10       29.94R VSB 3/4 WCI  26
REDWOOD FALLS  CLOUDY    37  34  89 N8        29.90R FOG
OLIVIA         CLOUDY    34  34 100 N6        29.91R FOG     WCI  29
PIPESTONE      CLOUDY    36  32  87 NE14      29.88R
WINDOM         MIX PCPN  37  37 100 N10       29.87R VSB 1/2
WORTHINGTON    FOG       36  35  96 N14       29.87R VSB 3/4
JACKSON        FOG       36  36 100 N7        29.86R VSB 1/4
TRACY          FOG       36  36 100 N12       29.91R VSB 1/2
SLAYTON        FOG       33  33 100 N14       29.89R VSB 1/4 WCI  24
$$
MNZ065>067-074>077-082>085-091>093-241300-
   South Central Minnesota

CITY           SKY/WX    TMP DP  RH WIND       PRES   REMARKS
MANKATO        LGT RAIN  37  36  96 N12       29.87S FOG
NEW ULM        CLOUDY    37  36  93 N8        29.88S FOG
ST JAMES       CLOUDY    37  37 100 N9        29.88R FOG
FAIRMONT       CLOUDY    38  37  97 N9        29.86R FOG
GLENCOE        CLOUDY    37  37 100 N6        29.90R FOG
FARIBAULT      CLOUDY    37  37 100 N6        29.87R FOG
OWATONNA       CLOUDY    37  36  93 N8        29.86R FOG
WASECA         DRIZZLE   36  36 100 N9        29.86R
ALBERT LEA     MIX PCPN  37  37 100 E3        29.83R
$$
MNZ078>079-086>088-094>096-241300-
   Southeast Minnesota

CITY           SKY/WX    TMP DP  RH WIND       PRES   REMARKS
ROCHESTER      CLOUDY    37  37 100 NE10      29.82R FOG
6HR MIN TEMP:  37; 6HR MAX TEMP:  40; 6HR PCP:  0.67;

RED WING       CLOUDY    39  37  93 N3        29.86S FOG
STANTON        CLOUDY    38  36  92 N10       29.86R FOG
DODGE CENTER   RAIN      37  36  93 N12       29.81R
WINONA         CLOUDY    37  37 100 CALM      29.87R
AUSTIN         CLOUDY    39  37  93 N6        29.82R FOG
PRESTON        CLOUDY    38  37  94 N8        29.81R FOG
$$
ABBREVIATIONS USED IN REMARKS
   TC - TEMPERATURES IN CELSIUS
  WCI - WIND CHILL INDEX
   HX - HEAT INDEX
  VSB - VISIBILITY
$$



USA.gov is the U.S. government's official web portal to all federal, state and local government web resources and services.